Location: Bussy-Saint-Georges
(48.8410°N, 2.7017°E)
Time: 22:21:25
(UTC+00:00)

BREEZE M DEB (TANK) - Pass Details

Date: 18 October 2021
Orbit: 302 x 11820 km, 49.5° (Epoch: 06 December)

Event Time Altitude Azimuth Distance (km) Brightness Sun altitude
Rises 19:38:16 0° 257° (WSW) 12,582 10.1 -27.6°
Reaches altitude 10° 19:51:24 10° 259° (W) 9,322 9.2 -29.7°
Maximum altitude 20:15:31 88° 352° (N) 1,676 4.5 -33.3°
Enters shadow 20:16:32 73° 75° (ENE) 1,571 4.2 -33.5°
